User: anonymous   Login
Location: Unspecified
(0.0000°N, 0.0000°E)
Time: 20:00:50
(UTC+00:00)
Language:

CAPE 1 - Orbit

View from above orbital plane
View from above orbital plane
View from above satellite
View from above satellite

Ground track
Ground track

The orbit data is extracted from the following two-line orbital elements,

1 31130U 07012P   17268.83326055 +.00000189 +00000-0 +50890-4 0  9998
2 31130 098.0894 214.7892 0094964 247.3984 111.7147 14.56184168553908
Epoch (UTC): 25 September 2017 19:59:53
Eccentricity: 0.0094964
inclination: 98.0894°
perigee height: 638 km
apogee height: 773 km
right ascension of ascending node: 214.7892°
argument of perigee: 247.3984°
revolutions per day: 14.56184168
mean anomaly at epoch: 111.7147°
orbit number at epoch: 55390

The dashed part of the orbit path shows where the satellite is in the earth's shadow,  

DLR